Wind_Speed
10 12 14 14 11 13 13 11 9 9 9 9 8 7 7 8 8 9 9 10 12 12 12 11 8 7 7 7 7 7 8 8 9 7 4 2 5 8 9 9 9 10 13 14 16 17 15 14 14
9 11 13 13 10 12 8 8 8 8 8 8 9 9 8 8 8 7 6 7 8 8 9 10 10 10 9 7 7 8 8 8 7 7 6 5 4 3 4 6 8 9 10 12 13 14 15 15 14
7 9 11 11 14 10 5 4 5 5 5 5 6 7 8 8 6 5 5 5 6 6 6 6 6 6 7 7 7 8 7 7 7 7 6 6 6 6 6 5 6 7 9 10 11 12 13 14 14
5 7 8 10 13 8 3 2 2 2 3 4 4 3 3 5 6 7 6 4 4 3 4 4 4 4 4 4 4 5 5 5 6 6 6 7 8 8 8 9 9 8 9 9 10 12 13 14 15
2 5 7 10 12 8 3 2 1 2 4 4 5 4 1 1 2 2 3 4 4 3 3 2 2 1 1 1 1 2 3 4 5 6 7 7 8 8 9 10 10 11 11 12 12 13 13 14 15
2 5 6 8 10 9 4 4 3 2 4 7 6 6 4 1 1 1 1 1 1 1 2 2 2 2 2 2 2 2 3 4 5 5 6 7 8 8 9 9 10 10 11 12 14 15 16 16 17
3 6 8 9 10 10 6 6 5 5 4 6 6 6 5 3 2 2 2 2 3 3 3 3 4 4 5 4 5 6 6 5 5 5 5 6 8 8 9 10 11 12 13 14 15 15 16 17 19
6 8 9 9 11 11 9 6 7 6 7 7 6 5 7 6 5 5 5 6 6 6 6 6 5 5 5 6 6 6 6 6 6 7 7 7 7 8 9 10 11 13 14 14 16 17 19 20 20
9 11 11 11 12 12 11 7 8 9 9 10 9 8 6 8 9 9 9 9 8 8 9 9 9 9 8 7 7 6 7 7 8 8 8 8 8 8 9 10 11 13 15 16 17 18 19 21 22
12 14 13 13 14 13 11 10 10 12 12 13 12 10 9 9 11 12 12 13 13 11 11 11 11 12 11 9 8 7 7 7 7 8 9 10 10 10 10 13 13 14 16 17 19 20 21 23 25
17 17 16 15 16 14 12 12 13 13 13 13 14 14 12 11 12 13 13 13 13 13 12 12 12 12 12 11 9 9 9 10 10 12 13 13 13 13 12 12 13 14 16 17 19 21 23 25 27
20 19 18 17 17 16 15 15 16 15 14 16 15 16 16 15 15 14 14 13 12 12 13 15 16 15 15 15 14 13 13 12 12 12 13 13 14 15 15 13 13 15 17 19 21 22 24 27 29
21 20 21 20 20 19 17 18 18 16 17 17 16 16 17 18 17 15 13 12 13 15 18 19 20 20 20 19 19 19 17 17 16 17 17 17 16 16 16 16 18 19 20 21 22 24 25 28 29
24 24 24 24 23 22 21 21 18 21 21 18 18 18 18 18 18 18 16 15 15 18 20 21 22 23 22 22 21 22 22 22 22 21 21 21 22 22 23 24 24 26 25 25 27 28 29 31 34
27 28 28 26 27 24 25 23 20 21 22 20 21 20 19 18 18 18 18 18 18 20 21 20 20 22 23 23 22 21 22 23 23 24 24 25 25 25 25 27 28 29 31 33 34 35 35 36 37
28 28 31 28 29 28 29 22 25 24 23 23 23 22 21 20 21 22 21 20 20 21 21 20 19 19 21 23 23 23 21 22 22 24 25 26 28 29 30 32 32 33 34 36 37 38 40 41 43
29 30 32 34 32 31 33 30 26 26 26 24 24 23 23 23 23 23 23 23 23 23 23 21 21 21 23 25 25 24 23 23 24 25 27 31 31 31 32 34 35 38 39 41 42 44 45 47 49
35 34 32 34 33 32 34 32 32 28 28 26 26 24 25 26 26 26 26 26 26 26 25 24 24 25 25 27 27 25 25 24 26 27 30 32 35 36 38 39 40 41 43 45 48 50 51 52 55
37 34 34 32 38 37 37 37 37 32 30 29 29 29 28 29 29 29 29 29 28 29 28 28 29 29 28 29 29 27 25 25 27 30 32 35 34 36 39 42 47 48 48 51 52 52 53 54 57
37 38 37 35 42 41 38 40 36 36 30 33 34 31 31 29 32 32 32 32 30 30 30 31 32 32 30 29 28 26 27 28 30 32 32 35 38 40 44 45 45 46 49 53 56 58 59 60 63
40 41 38 40 44 42 40 41 37 36 36 34 33 36 36 32 33 33 33 33 33 33 34 34 34 33 32 31 30 30 31 32 33 35 38 40 42 44 46 47 48 50 51 54 57 60 63 66 66
42 39 40 38 41 42 42 48 38 36 38 37 33 40 40 36 34 33 33 33 33 35 36 37 37 35 34 34 32 32 34 35 38 41 43 45 45 45 46 47 49 51 54 57 61 64 66 69 70
41 38 39 38 41 46 44 49 37 33 35 35 35 40 41 39 36 34 34 34 35 36 37 39 37 36 35 34 34 36 38 39 43 46 49 50 47 47 49 49 51 54 58 63 65 66 68 69 71
40 39 41 43 44 52 42 44 53 36 37 37 36 38 39 37 36 35 34 35 35 36 37 37 36 35 36 37 39 41 43 46 50 52 53 53 50 51 54 56 57 61 66 68 69 69 71 73 76
42 42 44 48 50 51 47 49 49 43 40 37 36 36 36 35 35 34 35 34 35 36 37 36 36 37 39 41 43 44 48 52 54 55 55 53 53 56 61 63 65 68 69 70 72 74 75 79 82
44 44 45 48 51 53 53 52 47 45 41 34 33 32 33 32 32 32 34 34 36 36 36 38 40 41 43 45 47 50 53 55 56 57 55 55 58 61 64 68 69 70 71 72 75 78 81 85 87
45 48 40 50 52 55 55 52 49 43 35 33 33 31 29 31 32 33 34 35 33 36 38 40 42 45 46 49 52 55 58 59 58 57 58 60 61 64 69 71 70 72 75 77 80 83 86 89 90
50 47 48 52 56 58 56 51 47 42 38 35 33 32 30 30 27 29 32 35 37 37 38 40 42 47 50 51 54 58 60 61 60 60 62 63 66 69 72 72 75 76 79 81 84 87 89 88 86
50 53 54 54 57 59 56 48 48 45 45 40 35 32 31 29 28 30 31 34 37 41 42 44 46 49 52 55 59 61 62 62 63 65 66 68 71 74 73 76 77 80 82 85 88 89 85 83 83
59 57 55 54 54 54 57 46 45 46 44 39 35 34 34 34 34 35 36 36 40 45 48 49 51 52 55 59 62 64 66 66 67 69 71 73 75 76 76 78 80 82 85 87 88 84 84 84 87
Wind_Direction
71 62 56 53 62 61 74 69 69 74 75 75 67 74 67 69 72 76 76 80 82 80 73 67 61 53 53 55 60 61 55 52 54 47 27 318 282 280 283 298 294 290 286 285 294 299 301 299 297
69 63 52 51 37 69 76 76 77 80 78 73 69 73 74 73 72 69 67 74 80 83 84 82 77 69 58 44 35 32 30 32 35 36 31 28 12 324 321 304 296 295 297 294 295 297 298 301 301
73 60 54 34 33 54 61 78 72 69 75 72 62 71 77 82 79 88 94 92 93 91 86 81 77 78 79 70 57 49 36 23 17 11 7 8 2 354 352 338 326 321 307 301 299 299 299 299 296
63 48 43 34 35 34 37 54 69 10 28 40 51 67 75 82 83 85 92 101 96 93 94 91 79 65 52 37 27 29 41 46 37 19 1 355 350 345 343 342 338 326 315 308 307 305 302 300 300
44 25 18 25 26 15 351 315 304 318 317 330 350 17 81 94 72 58 70 85 87 76 65 67 75 79 81 62 349 343 347 351 354 359 1 2 357 351 343 336 325 322 319 317 317 313 308 306 303
344 356 358 4 8 4 338 279 268 285 307 316 334 335 348 297 230 210 227 282 325 355 19 30 26 22 17 6 328 315 318 322 326 327 329 328 326 327 329 325 325 327 322 319 315 311 309 305 302
315 336 343 344 348 347 332 283 271 263 276 296 321 322 309 296 297 295 289 292 289 285 296 311 318 324 325 330 341 345 350 351 349 342 335 325 320 318 312 307 309 309 310 311 310 310 308 307 304
300 315 322 327 329 335 315 290 266 268 270 287 295 293 295 276 273 289 300 301 299 302 308 312 314 313 311 314 313 319 321 326 330 329 329 325 322 322 312 309 308 308 307 305 302 301 300 299 298
287 300 307 312 317 324 307 286 275 269 266 267 278 288 278 274 274 280 290 292 293 297 301 299 295 295 295 292 294 296 297 304 308 311 309 304 304 300 301 304 308 310 312 312 310 307 303 299 297
285 291 301 301 309 314 296 284 281 282 274 270 269 272 282 283 275 275 284 289 286 286 287 290 287 284 286 290 296 304 311 314 311 308 304 307 311 318 309 306 310 308 308 308 307 305 305 305 303
281 288 289 296 299 304 289 284 277 285 276 274 276 277 272 273 273 274 275 278 280 284 287 292 287 280 271 267 273 285 293 292 294 291 289 294 300 300 300 298 300 301 303 304 307 309 308 307 303
280 285 285 288 293 297 288 282 281 283 279 270 268 274 277 278 275 274 274 280 282 275 281 288 283 281 274 268 260 258 255 256 265 276 288 294 300 307 313 321 323 320 320 318 314 315 311 310 308
279 278 281 286 288 293 285 281 284 280 274 269 267 269 274 278 281 280 280 283 281 278 280 283 281 280 275 270 268 266 263 266 267 270 274 277 281 285 293 299 301 302 305 307 306 307 308 307 309
275 278 280 284 286 286 284 281 281 273 270 268 265 265 269 273 275 280 282 282 283 285 284 284 283 283 280 280 282 280 279 280 282 284 286 288 290 292 294 297 298 299 299 297 298 300 300 300 299
276 279 281 283 285 283 281 283 272 272 266 265 266 268 267 269 272 273 274 274 276 278 282 285 288 288 286 283 280 279 280 282 285 284 286 290 294 293 293 293 295 295 295 295 295 296 296 295 295
278 280 281 281 281 281 282 281 272 271 263 262 264 266 269 270 273 274 273 275 275 272 270 271 282 291 289 285 283 282 281 282 283 285 288 289 289 289 290 288 288 286 288 290 292 291 291 292 291
282 278 278 280 281 282 280 277 271 265 263 261 261 264 269 270 271 274 273 270 269 269 269 274 281 287 294 294 286 286 286 285 287 293 294 294 294 292 292 293 293 294 294 294 293 291 292 290 291
274 277 280 285 279 277 277 276 272 264 261 259 260 266 271 270 274 275 272 267 262 261 264 269 272 274 273 277 276 278 280 286 287 285 286 287 289 290 291 292 293 293 292 291 292 292 293 293 293
276 279 279 277 276 276 276 272 272 266 264 265 261 265 271 273 274 276 271 267 265 259 261 266 268 266 262 259 255 262 270 275 281 286 285 286 288 288 290 291 290 294 293 293 294 297 300 299 297
274 276 276 273 275 272 271 269 265 268 264 264 265 266 268 273 275 275 273 270 268 266 268 273 274 273 270 270 267 267 272 279 286 290 291 294 294 295 296 294 293 292 294 296 298 299 299 299 299
274 273 272 270 270 271 271 266 265 267 270 267 268 269 270 274 273 273 272 268 269 271 273 276 277 274 272 269 264 261 270 280 285 291 294 296 298 298 296 293 294 295 298 301 304 305 306 304 301
269 269 268 270 270 273 269 270 265 269 269 270 275 275 272 274 274 271 269 269 271 272 275 279 280 274 271 271 268 268 277 282 289 294 297 296 295 296 299 298 299 302 303 304 304 304 304 303 300
270 269 269 266 266 269 267 277 275 270 270 278 274 273 272 273 272 269 269 271 271 272 276 278 276 274 275 272 272 277 284 286 291 292 294 295 297 300 299 297 299 300 303 303 304 303 302 301 301
265 264 267 267 266 264 272 275 278 280 277 280 278 278 275 273 268 268 270 270 273 275 278 278 276 275 275 276 278 282 287 291 290 291 293 296 296 301 302 300 302 304 305 305 304 303 302 302 301
265 265 266 266 265 270 273 270 277 282 284 282 277 277 274 270 270 269 269 272 274 277 278 276 275 276 278 280 283 285 285 289 287 288 293 296 296 300 304 302 302 302 302 302 303 302 302 300 298
254 256 256 264 270 273 273 274 276 278 284 285 279 272 270 268 266 266 272 275 274 277 279 277 275 279 281 282 283 283 286 286 286 289 295 299 301 301 300 300 300 300 301 302 302 301 301 300 298
258 253 266 264 268 274 276 279 284 280 281 281 277 271 265 259 258 265 270 272 275 278 278 278 280 283 284 285 285 286 285 286 288 292 298 299 298 298 299 300 300 301 302 302 302 302 301 299 298
262 269 268 269 272 275 274 276 277 282 282 277 274 272 271 270 269 264 267 269 270 275 283 284 284 283 283 284 286 286 287 288 291 295 297 297 297 297 299 299 301 302 303 302 301 300 300 298 298
268 268 272 270 267 268 275 281 279 277 281 282 280 273 270 271 265 269 272 271 270 275 281 284 285 284 285 285 288 288 289 289 292 295 296 297 296 297 298 300 301 303 302 302 301 300 299 299 299
271 268 269 270 274 273 268 270 280 277 279 282 279 276 276 275 272 270 273 275 276 278 279 281 284 285 286 285 288 289 290 289 292 296 298 297 298 299 299 301 302 302 302 301 300 300 300 301 303
Height
5874 5874 5873 5872 5874 5869 5869 5870 5870 5870 5870 5869 5869 5869 5869 5869 5869 5871 5869 5869 5868 5869 5869 5869 5870 5870 5870 5871 5871 5872 5872 5872 5873 5873 5874 5876 5878 5879 5880 5881 5882 5882 5883 5884 5884 5883 5883 5884 5884
5875 5875 5874 5873 5873 5871 5871 5871 5871 5871 5871 5871 5870 5870 5870 5870 5870 5870 5870 5870 5870 5870 5870 5870 5870 5870 5870 5870 5871 5871 5872 5873 5873 5874 5874 5876 5877 5879 5879 5879 5880 5880 5880 5881 5881 5882 5882 5882 5882
5876 5876 5875 5875 5872 5871 5872 5872 5872 5872 5872 5872 5872 5871 5871 5871 5871 5871 5871 5870 5870 5870 5871 5871 5871 5871 5871 5871 5871 5871 5872 5873 5874 5875 5876 5876 5877 5876 5877 5878 5878 5878 5879 5879 5879 5879 5879 5880 5880
5876 5877 5876 5875 5873 5873 5873 5873 5873 5873 5873 5872 5872 5872 5872 5872 5871 5871 5871 5871 5871 5871 5871 5871 5871 5872 5872 5873 5873 5873 5873 5873 5874 5875 5875 5876 5876 5876 5877 5877 5877 5879 5879 5879 5879 5878 5878 5878 5878
5876 5877 5876 5875 5874 5874 5873 5873 5873 5873 5872 5872 5872 5872 5872 5872 5872 5872 5872 5872 5872 5872 5872 5871 5872 5872 5872 5872 5872 5872 5873 5874 5874 5874 5875 5875 5876 5876 5877 5878 5879 5879 5879 5879 5879 5879 5879 5878 5877
5876 5876 5876 5875 5875 5874 5873 5873 5873 5873 5873 5872 5872 5872 5872 5872 5872 5872 5872 5872 5872 5872 5872 5872 5872 5872 5872 5872 5872 5872 5872 5873 5873 5873 5874 5875 5875 5876 5877 5877 5877 5877 5878 5877 5877 5878 5877 5877 5877
5875 5875 5875 5874 5874 5874 5873 5872 5873 5873 5873 5872 5872 5871 5871 5871 5871 5871 5871 5871 5872 5872 5872 5872 5872 5872 5873 5873 5873 5873 5873 5873 5873 5873 5873 5874 5874 5874 5874 5874 5874 5875 5875 5875 5874 5874 5874 5874 5874
5873 5874 5874 5873 5873 5874 5873 5872 5871 5872 5872 5871 5871 5872 5870 5870 5870 5870 5870 5870 5871 5871 5871 5871 5871 5871 5871 5871 5871 5872 5872 5872 5872 5872 5872 5872 5872 5872 5872 5872 5871 5871 5871 5871 5872 5872 5872 5872 5871
5872 5872 5872 5873 5872 5872 5871 5871 5871 5870 5870 5869 5870 5870 5870 5870 5869 5870 5870 5870 5870 5870 5870 5870 5870 5870 5869 5869 5869 5869 5869 5869 5869 5869 5869 5869 5869 5869 5868 5869 5869 5869 5869 5869 5869 5869 5868 5868 5868
5870 5870 5870 5870 5870 5869 5869 5869 5869 5869 5868 5867 5868 5868 5868 5868 5869 5869 5869 5868 5868 5869 5869 5868 5868 5867 5867 5868 5867 5867 5867 5867 5866 5866 5865 5865 5865 5865 5866 5865 5865 5866 5865 5865 5865 5865 5864 5864 5862
5867 5867 5867 5868 5867 5867 5867 5867 5867 5867 5866 5866 5865 5865 5866 5866 5866 5866 5866 5866 5866 5866 5866 5866 5866 5865 5865 5865 5865 5865 5865 5864 5864 5863 5862 5862 5861 5861 5860 5860 5860 5860 5859 5859 5858 5858 5858 5858 5857
5863 5863 5864 5865 5864 5864 5864 5864 5863 5864 5864 5862 5863 5862 5863 5863 5863 5864 5864 5864 5863 5863 5863 5863 5862 5862 5862 5862 5862 5861 5860 5859 5860 5859 5859 5859 5858 5858 5858 5858 5858 5857 5857 5856 5855 5854 5853 5852 5851
5859 5860 5860 5860 5861 5860 5860 5860 5860 5861 5860 5860 5860 5860 5859 5859 5859 5860 5861 5861 5861 5861 5861 5860 5860 5859 5858 5858 5859 5858 5857 5856 5856 5856 5855 5855 5855 5855 5854 5853 5853 5852 5852 5851 5850 5849 5848 5846 5846
5855 5855 5855 5856 5856 5856 5856 5856 5857 5855 5855 5856 5856 5856 5857 5856 5857 5857 5857 5858 5858 5858 5858 5857 5856 5856 5856 5856 5856 5856 5855 5854 5854 5853 5852 5851 5851 5850 5849 5848 5848 5847 5846 5845 5844 5842 5841 5840 5838
5851 5850 5850 5851 5850 5851 5850 5852 5853 5851 5851 5852 5852 5852 5853 5853 5854 5854 5854 5854 5854 5853 5853 5853 5852 5852 5852 5852 5852 5852 5852 5852 5851 5850 5850 5849 5848 5847 5846 5844 5843 5841 5840 5838 5837 5835 5833 5831 5829
5846 5845 5843 5846 5844 5845 5844 5847 5846 5846 5847 5847 5847 5847 5848 5849 5849 5849 5849 5849 5849 5849 5848 5848 5848 5848 5848 5848 5848 5848 5848 5848 5848 5847 5846 5846 5844 5843 5841 5839 5837 5835 5833 5832 5829 5828 5826 5823 5821
5840 5839 5838 5838 5838 5839 5837 5838 5840 5840 5840 5842 5842 5843 5843 5843 5843 5843 5843 5843 5843 5843 5843 5843 5843 5844 5844 5844 5845 5845 5845 5843 5843 5843 5842 5841 5839 5838 5836 5835 5832 5830 5828 5826 5824 5821 5819 5816 5813
5830 5833 5833 5831 5832 5832 5830 5832 5831 5833 5834 5835 5836 5837 5837 5837 5838 5837 5837 5837 5837 5837 5837 5837 5837 5837 5837 5838 5839 5838 5838 5838 5838 5837 5836 5834 5832 5831 5829 5827 5825 5822 5819 5817 5814 5812 5808 5806 5804
5824 5826 5826 5826 5822 5824 5824 5824 5823 5826 5827 5829 5830 5830 5831 5832 5832 5831 5830 5831 5831 5831 5831 5831 5831 5830 5829 5829 5829 5831 5831 5830 5830 5829 5828 5826 5824 5822 5819 5816 5815 5811 5808 5805 5803 5799 5796 5793 5790
5818 5818 5819 5819 5813 5815 5816 5815 5817 5816 5822 5822 5822 5824 5824 5825 5824 5824 5824 5824 5825 5825 5825 5825 5824 5823 5823 5823 5824 5823 5822 5822 5821 5820 5818 5816 5814 5811 5810 5806 5802 5799 5796 5792 5789 5786 5783 5780 5777
5810 5809 5810 5809 5804 5806 5806 5804 5810 5812 5812 5816 5817 5815 5816 5817 5816 5815 5815 5816 5817 5818 5817 5816 5815 5815 5815 5815 5814 5814 5814 5813 5812 5810 5808 5805 5803 5800 5798 5795 5791 5788 5784 5781 5777 5773 5770 5766 5762
5799 5800 5800 5801 5797 5796 5797 5789 5801 5806 5806 5807 5811 5806 5807 5809 5808 5808 5807 5808 5809 5809 5808 5808 5808 5807 5806 5807 5807 5806 5805 5804 5802 5800 5798 5796 5793 5789 5785 5782 5779 5776 5772 5767 5762 5758 5754 5749 5744
5791 5792 5791 5792 5790 5785 5788 5782 5791 5798 5799 5800 5801 5798 5799 5800 5800 5799 5800 5800 5800 5800 5800 5799 5799 5799 5799 5799 5798 5798 5796 5795 5793 5791 5789 5786 5782 5776 5773 5769 5765 5761 5756 5752 5747 5742 5736 5732 5728
5782 5783 5782 5781 5780 5772 5783 5783 5771 5789 5790 5791 5790 5789 5789 5790 5790 5791 5791 5791 5792 5792 5792 5791 5791 5791 5791 5790 5790 5788 5787 5785 5783 5781 5778 5774 5770 5765 5760 5755 5750 5745 5741 5736 5731 5726 5720 5714 5708
5773 5774 5772 5770 5768 5767 5771 5770 5769 5774 5779 5781 5780 5779 5779 5780 5782 5783 5782 5783 5783 5783 5782 5782 5782 5783 5782 5781 5780 5778 5777 5775 5771 5768 5765 5760 5755 5751 5746 5741 5736 5730 5724 5719 5712 5707 5700 5694 5687
5760 5762 5761 5760 5758 5758 5759 5757 5762 5766 5769 5770 5771 5771 5771 5772 5773 5773 5773 5774 5774 5774 5774 5774 5774 5773 5772 5771 5770 5768 5766 5762 5758 5755 5751 5746 5741 5736 5731 5726 5719 5714 5708 5702 5696 5689 5681 5674 5666
5750 5750 5759 5751 5750 5747 5748 5750 5751 5752 5759 5760 5760 5761 5762 5763 5764 5764 5765 5765 5765 5765 5764 5764 5764 5763 5762 5761 5759 5756 5752 5748 5745 5741 5737 5731 5726 5721 5716 5710 5705 5698 5691 5684 5677 5669 5660 5651 5643
5740 5745 5744 5742 5740 5737 5736 5739 5739 5742 5745 5748 5751 5752 5752 5753 5755 5755 5756 5756 5755 5754 5754 5753 5753 5752 5750 5748 5746 5743 5739 5735 5731 5726 5721 5715 5711 5705 5699 5694 5688 5680 5671 5663 5656 5647 5638 5630 5621
5730 5728 5731 5733 5729 5728 5727 5729 5730 5732 5733 5736 5740 5741 5743 5744 5745 5745 5745 5745 5745 5744 5743 5743 5741 5739 5737 5735 5732 5728 5724 5720 5715 5710 5705 5699 5693 5687 5681 5675 5669 5661 5652 5644 5635 5626 5618 5609 5601
5714 5714 5715 5716 5720 5721 5719 5717 5722 5721 5723 5725 5728 5730 5731 5731 5732 5733 5735 5735 5734 5733 5732 5730 5728 5726 5723 5720 5717 5713 5709 5705 5700 5694 5688 5682 5675 5669 5663 5656 5647 5639 5632 5623 5614 5606 5597 5588 5579